Weather Roundup
Issued by NWS

Home | Current Version | Previous Version | Text Only | Print | Product List | Glossary On
Versions: 1 2 3 4 5 6 7 8 9 10 11 12 13 14 15 16 17 18 19 20 21 22 23 24 25 26 27 28 29 30 31 32 33 34 35 36 37 38 39 40 41 42 43 44 45 46 47 48 49 50
075
NZUS93 KARX 230810
HRRWXR

CURRENT HOURLY OBSERVATIONS ACROSS
MUCH OF THE UPPER MISSISSIPPI VALLEY
NATIONAL WEATHER SERVICE LA CROSSE WI
200 AM CST TUE JAN 23 2018


...SOUTHEAST MINNESOTA...


CITY           SKY/WX    TMP DP  RH WIND       PRES   REMARKS
ROCHESTER      LGT SNOW  24  23  96 N21G29    29.74R FOG     WCI   9
ROCHESTER/MAYO CLOUDY    25  24  95 NW9G18    29.76R WCI  16
WINONA         LGT SNOW  30  27  86 N9G17     29.73R WCI  22
AUSTIN         CLOUDY    25  21  86 VRB15G28  29.75R WCI  12
ALBERT LEA     CLOUDY    25  21  86 N12G22    29.79R WCI  14
DODGE CENTER   LGT SNOW  23  21  93 N18       29.77R WCI   9
PRESTON        CLOUDY    24  21  88 N16G22    29.71R WCI  11
OWATONNA         N/A     25  21  86 NW14      29.81R WCI  13
FARIBAULT      CLOUDY    27  21  80 NW13G22   29.83R WCI  16
$$

...ELSEWHERE IN MINNESOTA...


CITY           SKY/WX    TMP DP  RH WIND       PRES   REMARKS
MINNEAPOLIS    CLOUDY    25  19  78 N14       29.85R WCI  13
INTNL FALLS    FAIR      10   5  80 N10       30.01S WCI  -4
DULUTH         FAIR      13   8  81 N9        29.86R WCI   1
RED WING       LGT SNOW  27  19  74 NW6       29.81R WCI  20
REDWOOD FALLS  CLOUDY    24  18  77 N10       29.94R WCI  14
MANKATO        CLOUDY    25  21  85 NW17      29.87R WCI  12
WORTHINGTON    CLOUDY    23  21  92 N25       29.91  WCI   7
FAIRMONT       CLOUDY    25  23  93 NW22G28   29.88R WCI  10
$$

...SOUTHWEST WISCONSIN...


CITY           SKY/WX    TMP DP  RH WIND       PRES   REMARKS
LA CROSSE      LGT SNOW  29  26  89 N14       29.70R FOG     WCI  18
PRAIRIE DU CHI CLOUDY    32  28  83 N12G20    29.64R WCI  23
BOSCOBEL       CLOUDY    33  32  96 N12G21    29.63R WCI  24
LONE ROCK      CLOUDY    33  28  81 N8G26     29.60R WCI  26
PLATTEVILLE    CLOUDY    32  32 100 N13       29.58R WCI  22
FORT MC COY    CLOUDY    28  24  88 N9G16     29.68R WCI  19
CAMP DOUGLAS   CLOUDY    28  26  91 NW13      29.62R WCI  18
MAUSTON-NEW LI CLOUDY    29  26  89 NW9G16    29.61R FOG     WCI  21
VIROQUA        CLOUDY    28  28 100 N16G23    29.61R WCI  16
WIS DELLS      CLOUDY    30  28  94 N10       29.57R WCI  21
$$

...ELSEWHERE IN WISCONSIN...


CITY           SKY/WX    TMP DP  RH WIND       PRES   REMARKS
MILWAUKEE      LGT SNOW  34  33  96 NW7       29.49R FOG     WCI  28
MADISON        CLOUDY    30  28  92 N10       29.55R WCI  21
GREEN BAY      CLOUDY    29  25  85 N18G26    29.54R WCI  16
EAU CLAIRE     LGT SNOW  23  20  88 N13G22    29.74R FOG     WCI  11
BLACK RVR FLS  LGT SNOW  27  26  96 N9        29.68R WCI  18
MEDFORD        LGT SNOW  21  17  85 N16G22    29.64R WCI   7
WAUSAU         LGT SNOW  23  21  92 N9G18     29.59R VSB 1   WCI  13
WIS RAPIDS     NOT AVBL
MARSHFIELD     LGT SNOW  24  21  88 N14       29.62R FOG     WCI  12
RICE LAKE      CLOUDY    24  21  88 N15       29.79S WCI  12
$$

...NORTHEAST IOWA...


CITY           SKY/WX    TMP DP  RH WIND       PRES   REMARKS
WATERLOO       CLOUDY    28  25  88 N22       29.70R WCI  14
DUBUQUE        LGT SNOW  32  30  92 N13       29.58R FOG     WCI  22
DECORAH        LGT SNOW  28  27  93 N18       29.65R WCI  16
MASON CITY     MIX PCPN  26  22  84 N25       29.79R FOG     WCI  11
CHARLES CITY   LGT RAIN  27  27 100 N22G32    29.73R WCI  12
OELWEIN        CLOUDY    30  30 100 N20G30    29.67R WCI  18
$$

...ELSEWHERE IN IOWA...


CITY           SKY/WX    TMP DP  RH WIND       PRES   REMARKS
DES MOINES     FLURRIES  30  25  81 N17G28    29.80R WCI  18
IOWA CITY      CLOUDY    37  32  82 NW15      29.64R WCI  28
FORT DODGE     FLURRIES  28  24  85 N16G24    29.83R WCI  16
MARSHALLTOWN   CLOUDY    28  25  88 N26G35    29.73R WCI  13
CEDAR RAPIDS   LGT RAIN  34  32  92 NW18G26   29.63R WCI  23
$$

...NORTHERN ILLINOIS...


CITY           SKY/WX    TMP DP  RH WIND       PRES   REMARKS
CHICAGO-OHARE  CLOUDY    38  31  76 W10       29.49S WCI  31
CHICAGO-MIDWAY FAIR      35  30  82 W5        29.51R WCI  31
MOLINE         CLOUDY    36  33  89 W8        29.57R WCI  30
ROCKFORD       FLURRIES  33  31  92 N7        29.55R WCI  27
PEORIA         CLOUDY    35  33  92 W8        29.59R FOG     WCI  29
$$

NOTE: "FAIR" INDICATES FEW OR NO CLOUDS BELOW 12,000 FEET WITH NO
SIGNIFICANT WEATHER AND/OR OBSTRUCTIONS TO VISIBILITY. WIND
SPEEDS ARE IN MILES-PER-HOUR.




USA.gov is the U.S. government's official web portal to all federal, state and local government web resources and services.